星链-5438 (STARLINK-5438 )

导读 | 豆包AI

STARLINK-5438是美国太空探索技术公司星链星座的卫星,由美国于2022年12月17日发射入轨,属于星链互联网卫星组网任务的一部分。该卫星承担着为全球提供低延迟、高速宽带互联网服务的任务,尤其能覆盖偏远地区,推动全球网络互联,也是星链大规模星座部署中的重要组成单元。

基本信息
目录编号:
54786
目录名称:
STARLINK-5438
国际标识:
2022-175AE
轨道中心:
EARTH
卫星名称:
星链-5438
卫星全名:
星链-5438 (STARLINK-5438 )
卫星状态:
已陨落 最后检测时间 2024-08-18
发射日期:
2022-12-17 UTC
国别 :
美国 (US)
星等 :
--
轨道信息
数据来源 国际轨道数据
星历时间: 2024-08-19T01:23:51+0800
轨道信息已过期618天
半长轴: 6550.415km
偏心率: 0.0012187
轨道倾角: 53.203°
近地点辐角 184.989°
升交点赤经 41.058°
平近点角 261.143°
近地点: 164.297km
远地点: 180.263km
周期: 87.935分钟
每日圈数: 16.375688
详细信息
固有亮度:
5
最大亮度:
2.5
卫星平台:
Starlink v1.5
覆盖范围:
全球
运营商:
太空探索技术公司
运营商所在国:
美国
制造商(研发单位):
太空探索技术公司
制造商所在国:
美国
使用方式:
暂无
卫星简介
星链(Starlink)计划是由太空探索技术公司(SpaceX)提出的一个巨型低轨卫星互联网星座项目,计划在2019年至2024年间在太空搭建由约1.2万颗卫星组成的“星链”网络,其中1584颗将部署在地球上空550千米处的近地轨道,并从2020年开始工作。该卫星仍在工作。